Content
SEND FEEDBACK

Daily
Averages
Monthly
Summary
United States of America

YIGO, GUAM


Home > North America > United States > Guam
Elevation: 530 feet     Latitude: 13 32N     Longitude: 144 53E

WEATHER
 
SELECT A DAY
Number of Records: 214,876;   Date Range: 1/1/95 - 11/24/14
 
SHARE

PRINT THIS DATA

[ ← Previous Day ]
WEATHER ALMANAC - JANUARY 1, 2013
[ Next Day → ]
[ °C ]   °F
Weather ElementAverageHighLow
Temperature82 °F84.9 °F (3:54 pm)79 °F (3:54 am)
Dewpoint77.8 °F79 °F (10:54 am)75 °F (11:54 pm)
Humidity87.4 %94 % (8:24 pm)77 % (3:54 pm)
Barometer29.86 in29.92 in (9:30 pm)29.80 in (2:54 am)
Wind Speed16.4 mph23 mph (1:54 pm)
Wind Gust28.8 mph (12:54 pm)
Weather ElementAverage
Visibility9.3 mi
Wind DirectionENE (80 °)

Weather ElementTotal
Precipitation0.54 in
Cooling Degree Days17 (Base 65)
Growing Degree Days32 (Base 50)
Averaged from 52 records on January 1, 2013
WEATHER CONDITIONS BREAKOUT
WIND DIRECTION BREAKOUT
WEATHER BY HOUR - JANUARY 1, 2013
[ °C ]   °F
Local TimeTemperatureDewpointHumidityBarometerVisibilityWind DirectionWind SpeedGust SpeedPrecipitationEventsConditions
1:54 AM81.0 °F75.9 °F85 %29.81 in10.0 miENE (70°)16.1 mphPartly Cloudy
2:54 AM81.0 °F75.9 °F85 %29.80 in10.0 miENE (70°)16.1 mphMostly Cloudy
3:04 AM80.6 °F77.0 °F89 %29.82 in8.0 miEast (80°)13.8 mph0.00 inRainLight Rain
3:24 AM80.6 °F77.0 °F89 %29.82 in10.0 miENE (70°)15.0 mph24.2 mph0.04 inMostly Cloudy
3:54 AM79.0 °F75.9 °F90 %29.80 in10.0 miENE (70°)15.0 mph0.04 inClear
4:54 AM80.1 °F77.0 °F90 %29.81 in10.0 miENE (70°)18.4 mph26.5 mphMostly Cloudy
5:29 AM80.6 °F77.0 °F89 %29.84 in10.0 miENE (70°)18.4 mphMostly Cloudy
5:54 AM80.1 °F77.0 °F90 %29.82 in10.0 miENE (70°)19.6 mph26.5 mph0.00 inMostly Cloudy
6:08 AM80.6 °F77.0 °F89 %29.84 in10.0 miEast (80°)17.3 mph25.3 mphScattered Clouds
6:20 AM80.6 °F77.0 °F89 %29.85 in7.0 miEast (80°)15.0 mph24.2 mph0.00 inRainLight Rain
6:32 AM80.6 °F77.0 °F89 %29.85 in10.0 miEast (80°)16.1 mph21.9 mph0.00 inScattered Clouds
6:54 AM80.1 °F77.0 °F90 %29.83 in10.0 miEast (80°)13.8 mph0.00 inScattered Clouds
7:16 AM80.6 °F77.0 °F89 %29.87 in10.0 miEast (80°)15.0 mphMostly Cloudy
7:36 AM80.6 °F77.0 °F89 %29.87 in10.0 miENE (70°)16.1 mph24.2 mph0.00 inMostly Cloudy
7:54 AM81.0 °F78.1 °F91 %29.86 in10.0 miENE (70°)16.1 mph0.00 inScattered Clouds
8:41 AM82.4 °F78.8 °F89 %29.90 in10.0 miEast (80°)19.6 mph25.3 mph0.01 inMostly Cloudy
8:54 AM82.0 °F78.1 °F88 %29.88 in10.0 miEast (90°)13.8 mph0.01 inScattered Clouds
9:15 AM82.4 °F78.8 °F89 %29.90 in10.0 miEast (80°)17.3 mph25.3 mphMostly Cloudy
9:51 AM82.4 °F78.8 °F89 %29.90 in10.0 miEast (80°)18.4 mph26.5 mphMostly Cloudy
9:54 AM82.9 °F78.1 °F85 %29.88 in10.0 miEast (80°)18.4 mph26.5 mphMostly Cloudy
10:10 AM82.4 °F78.8 °F89 %29.90 in3.0 miEast (80°)19.6 mph26.5 mph0.03 inRainLight Rain
10:54 AM82.0 °F79.0 °F90 %29.88 in4.0 miEast (90°)12.7 mph25.3 mph0.05 inRainLight Rain
11:14 AM84.2 °F78.8 °F84 %29.89 in7.0 miEast (90°)16.1 mph27.6 mph0.00 inScattered Clouds
11:32 AM82.4 °F78.8 °F89 %29.89 in4.0 miEast (90°)13.8 mph0.01 inRainLight Rain
11:47 AM82.4 °F78.8 °F89 %29.88 in10.0 miEast (80°)19.6 mph26.5 mph0.01 inScattered Clouds
11:54 AM84.0 °F79.0 °F85 %29.86 in10.0 miEast (90°)18.4 mph26.5 mph0.01 inPartly Cloudy
12:43 PM82.4 °F78.8 °F89 %29.86 in3.0 miENE (70°)17.3 mph25.3 mph0.03 inRainRain
12:54 PM82.9 °F79.0 °F88 %29.83 in10.0 miEast (80°)18.4 mph28.8 mph0.03 inMostly Cloudy
1:25 PM84.2 °F78.8 °F84 %29.84 in10.0 miENE (70°)18.4 mph27.6 mphMostly Cloudy
1:33 PM84.2 °F78.8 °F84 %29.84 in10.0 miEast (90°)18.4 mph25.3 mphScattered Clouds
1:40 PM84.2 °F78.8 °F84 %29.84 in10.0 miEast (80°)18.4 mph26.5 mphMostly Cloudy
1:52 PM84.2 °F78.8 °F84 %29.84 in10.0 miEast (80°)20.7 mph27.6 mphScattered Clouds
1:54 PM84.0 °F78.1 °F82 %29.82 in10.0 miEast (80°)23.0 mph28.8 mphScattered Clouds
2:49 PM84.2 °F78.8 °F84 %29.83 in10.0 miENE (70°)18.4 mph26.5 mphMostly Cloudy
2:54 PM84.0 °F78.1 °F82 %29.81 in10.0 miEast (80°)17.3 mph26.5 mph0.00 inMostly Cloudy
3:20 PM84.2 °F78.8 °F84 %29.83 in10.0 miEast (90°)17.3 mph25.3 mphScattered Clouds
3:54 PM84.9 °F77.0 °F77 %29.80 in10.0 miEast (90°)15.0 mph24.2 mphScattered Clouds
4:51 PM84.2 °F77.0 °F79 %29.85 in10.0 miEast (90°)16.1 mph25.3 mphMostly Cloudy
4:54 PM84.0 °F77.0 °F79 %29.83 in10.0 miEast (80°)15.0 mph25.3 mphScattered Clouds
5:54 PM82.9 °F78.1 °F85 %29.83 in10.0 miENE (70°)16.1 mph23.0 mphScattered Clouds
6:19 PM82.4 °F77.0 °F84 %29.87 in10.0 miEast (80°)21.9 mph28.8 mph0.00 inRainLight Rain
6:27 PM80.6 °F77.0 °F89 %29.87 in10.0 miEast (80°)16.1 mph0.00 inPartly Cloudy
6:54 PM82.0 °F78.1 °F88 %29.86 in10.0 miEast (90°)15.0 mph0.00 inPartly Cloudy
7:54 PM81.0 °F77.0 °F88 %29.88 in10.0 miEast (80°)15.0 mph24.2 mphScattered Clouds
8:24 PM80.6 °F78.8 °F94 %29.90 in10.0 miEast (90°)12.7 mph18.4 mph0.09 inRainLight Rain
8:43 PM80.6 °F78.8 °F94 %29.91 in10.0 miEast (80°)13.8 mph21.9 mph0.09 inScattered Clouds
8:54 PM81.0 °F78.1 °F91 %29.89 in10.0 miEast (80°)12.7 mph23.0 mph0.09 inScattered Clouds
9:16 PM80.6 °F78.8 °F94 %29.91 in10.0 miEast (80°)13.8 mphMostly Cloudy
9:30 PM80.6 °F77.0 °F89 %29.92 in10.0 miEast (90°)13.8 mphScattered Clouds
9:54 PM81.0 °F78.1 °F91 %29.90 in10.0 miEast (80°)16.1 mph24.2 mphScattered Clouds
10:54 PM81.0 °F78.1 °F91 %29.90 in10.0 miEast (90°)10.4 mph19.6 mphScattered Clouds
11:54 PM79.0 °F75.0 °F88 %29.90 in10.0 miEast (80°)11.5 mph0.00 inScattered Clouds
Hourly data recorded from PGUM, located miles away from Yigo, Guam







STORIES FROM OUR PARTNERS